• Em Portugal
  • Lista de países
  • Para 7 dias
  • Temperatura da água
  • Mapas de satélite
  • Mapa do tempo
  • Widgets de tempo
  • user-avatar
    Iniciar Sessão

    Previsão horária em Kaszuba

    Hoje, 20 Agosto, Segunda-feira

    Tempo Temperatura Precipitação Vento Pressão Humidade
    00:00 +19°C° 0 mm 2 m/s 750 mmHg 71%
    01:00 +19°C° 0 mm 2 m/s 749 mmHg 68%
    02:00 +19°C° 0 mm 2 m/s 749 mmHg 66%
    03:00 +19°C° 0 mm 2 m/s 748 mmHg 64%
    04:00 +19°C° 0 mm 3 m/s 748 mmHg 61%
    05:00 +20°C° 0 mm 3 m/s 748 mmHg 60%
    06:00 +21°C° 0 mm 3 m/s 748 mmHg 59%
    07:00 +22°C° 0 mm 4 m/s 748 mmHg 58%
    08:00 +23°C° 0 mm 4 m/s 748 mmHg 56%
    09:00 +25°C° 0 mm 5 m/s 748 mmHg 54%
    10:00 +27°C° 0 mm 5 m/s 748 mmHg 52%
    11:00 +26°C° 0,1 mm 5 m/s 748 mmHg 55%
    12:00 +26°C° 0,1 mm 5 m/s 747 mmHg 58%
    13:00 +26°C° 0,1 mm 6 m/s 747 mmHg 61%
    14:00 +24°C° 0,1 mm 6 m/s 747 mmHg 64%
    15:00 +23°C° 0,1 mm 6 m/s 748 mmHg 66%
    16:00 +23°C° 0,1 mm 5 m/s 748 mmHg 69%
    17:00 +22°C° 0,1 mm 5 m/s 748 mmHg 72%
    18:00 +21°C° 0,1 mm 5 m/s 748 mmHg 75%
    19:00 +20°C° 0,1 mm 4 m/s 748 mmHg 77%
    20:00 +19°C° 0 mm 4 m/s 748 mmHg 77%
    21:00 +18°C° 0 mm 4 m/s 748 mmHg 77%
    22:00 +17°C° 0 mm 4 m/s 748 mmHg 77%
    23:00 +17°C° 0 mm 4 m/s 748 mmHg 76%

    Amanhã, 21 Agosto, Terça-feira

    Tempo Temperatura Precipitação Vento Pressão Humidade
    00:00 +17°C° 0 mm 4 m/s 749 mmHg 76%
    01:00 +15°C° 0 mm 4 m/s 749 mmHg 75%
    02:00 +16°C° 0 mm 3 m/s 749 mmHg 77%
    03:00 +14°C° 0 mm 3 m/s 749 mmHg 78%
    04:00 +14°C° 0 mm 3 m/s 750 mmHg 80%
    05:00 +16°C° 0 mm 3 m/s 750 mmHg 76%
    06:00 +17°C° 0 mm 4 m/s 751 mmHg 72%
    07:00 +18°C° 0 mm 4 m/s 751 mmHg 67%
    08:00 +19°C° 0 mm 4 m/s 751 mmHg 62%
    09:00 +20°C° 0 mm 4 m/s 752 mmHg 57%
    10:00 +21°C° 0 mm 4 m/s 752 mmHg 51%
    11:00 +22°C° 0 mm 4 m/s 752 mmHg 49%
    12:00 +23°C° 0 mm 4 m/s 752 mmHg 46%
    13:00 +23°C° 0 mm 4 m/s 753 mmHg 43%
    14:00 +24°C° 0 mm 3 m/s 753 mmHg 44%
    15:00 +24°C° 0 mm 3 m/s 753 mmHg 45%
    16:00 +22°C° 0 mm 3 m/s 753 mmHg 46%
    17:00 +21°C° 0 mm 3 m/s 753 mmHg 52%
    18:00 +19°C° 0 mm 2 m/s 753 mmHg 59%
    19:00 +18°C° 0 mm 2 m/s 753 mmHg 66%
    20:00 +17°C° 0 mm 2 m/s 753 mmHg 70%
    21:00 +16°C° 0 mm 2 m/s 753 mmHg 75%
    22:00 +15°C° 0 mm 1 m/s 754 mmHg 80%
    23:00 +15°C° 0 mm 1 m/s 754 mmHg 82%

    Depois de amanhã, 22 Agosto, Quarta-feira

    Tempo Temperatura Precipitação Vento Pressão Humidade
    00:00 +14°C° 0 mm 1 m/s 754 mmHg 84%
    01:00 +14°C° 0 mm 1 m/s 754 mmHg 87%
    02:00 +14°C° 0 mm 1 m/s 754 mmHg 87%
    03:00 +13°C° 0 mm 2 m/s 754 mmHg 88%
    04:00 +13°C° 0 mm 2 m/s 754 mmHg 89%
    05:00 +14°C° 0 mm 2 m/s 754 mmHg 84%
    06:00 +15°C° 0 mm 2 m/s 754 mmHg 79%
    07:00 +17°C° 0 mm 3 m/s 754 mmHg 73%
    08:00 +18°C° 0 mm 3 m/s 754 mmHg 66%
    09:00 +20°C° 0 mm 3 m/s 754 mmHg 60%
    10:00 +22°C° 0 mm 3 m/s 754 mmHg 53%
    11:00 +24°C° 0 mm 3 m/s 754 mmHg 49%
    12:00 +25°C° 0 mm 3 m/s 753 mmHg 45%
    13:00 +26°C° 0 mm 3 m/s 753 mmHg 42%
    14:00 +26°C° 0 mm 3 m/s 753 mmHg 41%
    15:00 +26°C° 0 mm 3 m/s 752 mmHg 41%
    16:00 +27°C° 0 mm 3 m/s 752 mmHg 40%
    17:00 +25°C° 0 mm 2 m/s 751 mmHg 46%
    18:00 +23°C° 0 mm 2 m/s 751 mmHg 52%
    19:00 +21°C° 0 mm 2 m/s 751 mmHg 57%
    20:00 +20°C° 0 mm 2 m/s 751 mmHg 59%
    21:00 +19°C° 0 mm 2 m/s 751 mmHg 61%
    22:00 +19°C° 0 mm 3 m/s 751 mmHg 63%
    23:00 +18°C° 0 mm 3 m/s 750 mmHg 63%

    23 Agosto, Quinta-feira

    Tempo Temperatura Precipitação Vento Pressão Humidade
    00:00 +18°C° 0 mm 3 m/s 750 mmHg 63%
    01:00 +18°C° 0 mm 3 m/s 750 mmHg 62%
    02:00 +18°C° 0 mm 3 m/s 750 mmHg 62%
    03:00 +18°C° 0 mm 3 m/s 749 mmHg 62%
    04:00 +18°C° 0 mm 3 m/s 749 mmHg 62%
    05:00 +19°C° 0 mm 3 m/s 749 mmHg 62%
    06:00 +19°C° 0 mm 3 m/s 749 mmHg 62%
    07:00 +20°C° 0 mm 3 m/s 749 mmHg 62%
    08:00 +22°C° 0 mm 3 m/s 749 mmHg 58%
    09:00 +25°C° 0 mm 4 m/s 748 mmHg 54%
    10:00 +27°C° 0 mm 4 m/s 748 mmHg 50%
    11:00 +27°C° 0 mm 4 m/s 748 mmHg 49%
    12:00 +28°C° 0 mm 3 m/s 748 mmHg 48%
    13:00 +28°C° 0 mm 3 m/s 747 mmHg 47%
    14:00 +28°C° 0 mm 3 m/s 747 mmHg 48%
    15:00 +28°C° 0 mm 2 m/s 747 mmHg 49%
    16:00 +28°C° 0 mm 2 m/s 747 mmHg 50%
    17:00 +27°C° 0 mm 2 m/s 746 mmHg 54%
    18:00 +26°C° 0 mm 2 m/s 746 mmHg 59%
    19:00 +24°C° 0 mm 2 m/s 746 mmHg 63%
    20:00 +24°C° 0,1 mm 2 m/s 745 mmHg 65%
    21:00 +23°C° 0,1 mm 2 m/s 745 mmHg 66%
    22:00 +23°C° 0,1 mm 2 m/s 745 mmHg 68%
    23:00 +21°C° 0,1 mm 2 m/s 745 mmHg 70%

    24 Agosto, Sexta-feira

    Tempo Temperatura Precipitação Vento Pressão Humidade
    00:00 +21°C° 0,1 mm 2 m/s 744 mmHg 72%
    01:00 +20°C° 0,1 mm 3 m/s 744 mmHg 73%
    02:00 +20°C° 0,1 mm 2 m/s 744 mmHg 76%
    03:00 +19°C° 0,1 mm 2 m/s 743 mmHg 79%
    04:00 +19°C° 0,1 mm 2 m/s 743 mmHg 82%
    05:00 +20°C° 0,1 mm 2 m/s 743 mmHg 80%
    06:00 +21°C° 0,1 mm 2 m/s 743 mmHg 78%
    07:00 +23°C° 0,1 mm 2 m/s 743 mmHg 76%
    08:00 +24°C° 0,2 mm 2 m/s 743 mmHg 71%
    09:00 +26°C° 0,2 mm 2 m/s 743 mmHg 66%
    10:00 +27°C° 0,2 mm 2 m/s 743 mmHg 60%
    11:00 +27°C° 0,8 mm 3 m/s 743 mmHg 62%
    12:00 +26°C° 0,8 mm 3 m/s 743 mmHg 64%
    13:00 +26°C° 0,8 mm 3 m/s 743 mmHg 66%
    14:00 +24°C° 1,6 mm 3 m/s 743 mmHg 71%
    15:00 +22°C° 1,6 mm 3 m/s 743 mmHg 76%
    16:00 +21°C° 1,6 mm 3 m/s 743 mmHg 81%
    17:00 +20°C° 1 mm 3 m/s 743 mmHg 83%
    18:00 +19°C° 1 mm 3 m/s 744 mmHg 84%
    19:00 +18°C° 1 mm 2 m/s 744 mmHg 86%
    20:00 +18°C° 0,1 mm 2 m/s 744 mmHg 86%
    21:00 +17°C° 0,1 mm 2 m/s 744 mmHg 86%
    22:00 +17°C° 0,1 mm 2 m/s 744 mmHg 86%
    23:00 +17°C° 0 mm 2 m/s 744 mmHg 87%

    25 Agosto, Sábado

    Tempo Temperatura Precipitação Vento Pressão Humidade
    00:00 +16°C° 0 mm 2 m/s 744 mmHg 87%
    01:00 +16°C° 0 mm 2 m/s 745 mmHg 88%
    02:00 +16°C° 0 mm 2 m/s 745 mmHg 87%
    03:00 +16°C° 0 mm 2 m/s 745 mmHg 86%
    04:00 +16°C° 0 mm 2 m/s 745 mmHg 84%
    05:00 +15°C° 0,2 mm 2 m/s 745 mmHg 85%
    06:00 +14°C° 0,2 mm 3 m/s 745 mmHg 85%
    07:00 +14°C° 0,2 mm 3 m/s 746 mmHg 85%
    08:00 +14°C° 0,5 mm 3 m/s 746 mmHg 85%
    09:00 +14°C° 0,5 mm 3 m/s 746 mmHg 85%
    10:00 +14°C° 0,5 mm 3 m/s 747 mmHg 84%
    11:00 +14°C° 0,4 mm 3 m/s 747 mmHg 82%
    12:00 +16°C° 0,4 mm 2 m/s 747 mmHg 79%
    13:00 +16°C° 0,4 mm 2 m/s 747 mmHg 76%
    14:00 +17°C° 0 mm 2 m/s 747 mmHg 69%
    15:00 +17°C° 0 mm 2 m/s 747 mmHg 63%
    16:00 +18°C° 0 mm 2 m/s 747 mmHg 56%
    17:00 +18°C° 0 mm 1 m/s 747 mmHg 59%
    18:00 +16°C° 0 mm 1 m/s 747 mmHg 63%
    19:00 +15°C° 0 mm 1 m/s 747 mmHg 66%
    20:00 +15°C° 0 mm 1 m/s 747 mmHg 68%
    21:00 +14°C° 0 mm 1 m/s 747 mmHg 70%
    22:00 +14°C° 0 mm 1 m/s 747 mmHg 71%
    23:00 +13°C° 0 mm 1 m/s 747 mmHg 73%
    Mostrar mais